GW0996 Weather Reports


time (UTC)temp
C
wind
direction
speed
KPH
gust
KPH
rain 1hr
cm
rain 24hr
cm
rain mn
cm
humidity
%
barometer
mb
20260509205355 16 312 0.0 3.2 0.00 0.00 0.00 80 1013.8
20260509204855 16 312 1.6 4.8 0.00 0.00 0.00 80 1013.7
20260509204353 16 312 0.0 4.8 0.00 0.00 0.00 80 1013.9
20260509203852 16 329 0.0 3.2 0.00 0.00 0.00 80 1014.0
20260509203355 16 102 0.0 1.6 0.00 0.00 0.00 79 1014.0
20260509202853 16 126 0.0 0.0 0.00 0.00 0.00 79 1014.0
20260509202352 16 126 0.0 0.0 0.00 0.00 0.00 79 1014.0
20260509201853 16 126 0.0 1.6 0.00 0.00 0.00 79 1014.1
20260509201354 16 126 0.0 1.6 0.00 0.00 0.00 79 1014.0
20260509200851 16 132 0.0 1.6 0.00 0.00 0.00 80 1014.0
20260509200353 16 130 0.0 0.0 0.00 0.00 0.00 81 1014.0
20260509195853 16 130 0.0 0.0 0.00 0.00 0.00 80 1014.1
20260509195353 16 130 0.0 0.0 0.00 0.00 0.00 78 1014.1
20260509194851 16 130 0.0 0.0 0.00 0.00 0.00 78 1014.1
20260509194354 17 130 0.0 1.6 0.00 0.00 0.00 78 1013.8
20260509193852 17 130 0.0 1.6 0.00 0.00 0.00 78 1014.1
20260509193352 17 130 0.0 1.6 0.00 0.00 0.00 80 1014.1
20260509192855 17 130 0.0 0.0 0.00 0.00 0.00 80 1013.8
20260509192354 17 130 0.0 0.0 0.00 0.00 0.00 79 1013.7
20260509191852 17 130 0.0 0.0 0.00 0.00 0.00 76 1013.5
20260509191355 17 130 0.0 0.0 0.00 0.00 0.00 76 1013.5
20260509190352 18 130 0.0 0.0 0.00 0.00 0.00 75 1013.1
20260509185855 18 130 0.0 1.6 0.00 0.00 0.00 77 1013.0
20260509185356 18 130 0.0 1.6 0.00 0.00 0.00 77 1013.1
20260509184853 18 130 1.6 1.6 0.00 0.00 0.00 76 1012.7
20260509184356 18 130 0.0 1.6 0.00 0.00 0.00 76 1012.9
20260509183852 19 130 0.0 1.6 0.00 0.00 0.00 76 1012.6
20260509182854 19 130 0.0 1.6 0.00 0.00 0.00 75 1012.5
20260509181853 19 130 0.0 1.6 0.00 0.00 0.00 74 1012.6
20260509181355 20 129 0.0 1.6 0.00 0.00 0.00 75 1012.5
20260509180852 20 129 0.0 3.2 0.00 0.00 0.00 74 1012.2
20260509180353 20 129 0.0 3.2 0.00 0.00 0.00 73 1012.5
20260509175853 20 122 0.0 1.6 0.00 0.00 0.00 73 1012.6
20260509175353 20 126 0.0 1.6 0.00 0.00 0.00 71 1012.4
20260509174355 21 72 0.0 3.2 0.00 0.00 0.00 67 1012.7
20260509173850 22 338 0.0 3.2 0.00 0.00 0.00 66 1012.8
20260509173352 22 303 0.0 0.0 0.00 0.00 0.00 63 1012.7
20260509172350 22 304 0.0 0.0 0.00 0.00 0.00 64 1013.0
20260509171848 22 297 0.0 0.0 0.00 0.00 0.00 62 1012.8
20260509171348 22 297 0.0 0.0 0.00 0.00 0.00 65 1012.6
20260509170850 22 297 0.0 1.6 0.00 0.00 0.00 62 1012.8
20260509165850 22 296 0.0 3.2 0.00 0.00 0.00 58 1012.5
20260509164348 23 169 0.0 1.6 0.00 0.00 0.00 55 1012.4
20260509163852 23 169 0.0 1.6 0.00 0.00 0.00 53 1012.6
20260509162837 23 161 0.0 0.0 0.00 0.00 0.00 55 1012.5
20260509161838 24 161 0.0 0.0 0.00 0.00 0.00 48 1012.8
20260509161337 24 161 0.0 0.0 0.00 0.00 0.00 47 1012.5
20260509160334 25 161 0.0 0.0 0.00 0.00 0.00 40 1012.9
20260509155839 25 161 0.0 0.0 0.00 0.00 0.00 38 1012.9
20260509155335 25 161 0.0 1.6 0.00 0.00 0.00 38 1012.7
20260509154834 25 154 0.0 1.6 0.00 0.00 0.00 38 1013.0
20260509154338 25 152 0.0 0.0 0.00 0.00 0.00 37 1013.1
20260509153837 25 152 0.0 0.0 0.00 0.00 0.00 38 1013.1
20260509153335 25 152 0.0 1.6 0.00 0.00 0.00 37 1013.2
20260509152836 25 152 0.0 3.2 0.00 0.00 0.00 36 1013.1
20260509152334 25 147 1.6 3.2 0.00 0.00 0.00 37 1013.2
20260509151829 25 313 0.0 1.6 0.00 0.00 0.00 39 1013.2
20260509151330 24 315 0.0 3.2 0.00 0.00 0.00 40 1013.1
20260509150315 25 129 0.0 3.2 0.00 0.00 0.00 37 1013.3
20260509145317 25 133 1.6 4.8 0.00 0.00 0.00 39 1013.2
20260509144805 25 187 0.0 1.6 0.00 0.00 0.00 40 1013.3
20260509144305 25 246 0.0 1.6 0.00 0.00 0.00 39 1013.6
20260509143805 25 303 0.0 1.6 0.00 0.00 0.00 41 1013.6
20260509143253 25 303 0.0 0.0 0.00 0.00 0.00 41 1013.7
20260509142754 25 306 0.0 3.2 0.00 0.00 0.00 42 1013.5
20260509142251 25 306 0.0 4.8 0.00 0.00 0.00 43 1013.8
20260509141757 25 306 1.6 4.8 0.00 0.00 0.00 43 1013.8
20260509140754 25 144 0.0 3.2 0.00 0.00 0.00 42 1013.8
20260509140253 25 169 0.0 1.6 0.00 0.00 0.00 43 1014.0
20260509135754 24 214 0.0 0.0 0.00 0.00 0.00 45 1014.2
20260509135251 25 214 0.0 0.0 0.00 0.00 0.00 47 1013.9
20260509134755 25 214 0.0 0.0 0.00 0.00 0.00 49 1014.3
20260509133752 25 214 0.0 0.0 0.00 0.00 0.00 44 1014.2
20260509133253 25 215 0.0 1.6 0.00 0.00 0.00 44 1014.3
20260509132254 25 159 0.0 1.6 0.00 0.00 0.00 45 1014.7
20260509131752 25 149 0.0 1.6 0.00 0.00 0.00 44 1014.5
20260509131251 25 119 0.0 1.6 0.00 0.00 0.00 47 1014.5
20260509130752 26 106 0.0 4.8 0.00 0.00 0.00 46 1014.5
20260509130253 25 110 0.0 4.8 0.00 0.00 0.00 44 1014.6
20260509125752 25 169 0.0 4.8 0.00 0.00 0.00 44 1014.5
20260509125251 26 164 1.6 4.8 0.00 0.00 0.00 42 1014.4
20260509124252 26 147 1.6 9.7 0.00 0.00 0.00 42 1014.5
20260509123255 26 11 0.0 1.6 0.00 0.00 0.00 39 1014.6
20260509122251 26 310 0.0 3.2 0.00 0.00 0.00 39 1014.7
20260509121753 26 147 1.6 1.6 0.00 0.00 0.00 37 1014.7
20260509120753 25 137 0.0 3.2 0.00 0.00 0.00 38 1014.7
20260509120252 26 210 0.0 4.8 0.00 0.00 0.00 35 1014.8
20260509115754 25 201 0.0 4.8 0.00 0.00 0.00 41 1014.9
20260509115252 26 257 1.6 9.7 0.00 0.00 0.00 38 1014.8
20260509114753 25 304 0.0 9.7 0.00 0.00 0.00 38 1014.8
20260509114251 26 151 0.0 1.6 0.00 0.00 0.00 37 1015.0
20260509113744 26 146 0.0 1.6 0.00 0.00 0.00 38 1014.8
20260509113238 25 6 0.0 4.8 0.00 0.00 0.00 41 1014.8
20260509112739 25 310 1.6 4.8 0.00 0.00 0.00 40 1014.8
20260509112238 25 217 0.0 3.2 0.00 0.00 0.00 39 1015.1
20260509111738 26 216 0.0 3.2 0.00 0.00 0.00 41 1015.2
20260509110234 25 187 0.0 1.6 0.00 0.00 0.00 43 1015.2
20260509105728 25 183 0.0 1.6 0.00 0.00 0.00 44 1015.0
20260509105228 25 224 0.0 1.6 0.00 0.00 0.00 45 1015.1
20260509104724 25 97 0.0 1.6 0.00 0.00 0.00 48 1015.1
20260509104202 25 97 0.0 1.6 0.00 0.00 0.00 49 1015.1
20260509103154 24 90 0.0 4.8 0.00 0.00 0.00 48 1015.3
20260509102700 25 183 3.2 4.8 0.00 0.00 0.00 48 1015.2
20260509101656 23 334 0.0 3.2 0.00 0.00 0.00 56 1015.3
20260509101154 23 51 0.0 1.6 0.00 0.00 0.00 55 1015.4
20260509095152 22 305 0.0 3.2 0.00 0.00 0.00 54 1015.6
20260509094157 23 63 0.0 1.6 0.00 0.00 0.00 58 1015.7
20260509093655 23 63 0.0 1.6 0.00 0.00 0.00 55 1015.8
20260509092152 21 41 0.0 1.6 0.00 0.00 0.00 61 1015.9
20260509091655 21 135 1.6 1.6 0.00 0.00 0.00 61 1015.8
20260509091153 21 132 0.0 1.6 0.00 0.00 0.00 64 1016.1
20260509090654 21 138 0.0 1.6 0.00 0.00 0.00 64 1016.0
20260509090151 21 138 0.0 1.6 0.00 0.00 0.00 63 1016.0
20260509085656 20 140 0.0 3.2 0.00 0.00 0.00 71 1016.2
20260509084654 20 315 0.0 3.2 0.00 0.00 0.00 68 1016.0
20260509084153 19 316 0.0 3.2 0.00 0.00 0.00 74 1015.9
20260509083152 19 304 0.0 1.6 0.00 0.00 0.00 78 1016.2
20260509082646 18 305 0.0 3.2 0.00 0.00 0.00 79 1016.3
20260509080644 16 176 0.0 3.2 0.00 0.00 0.00 85 1016.6
20260509080143 15 272 0.0 3.2 0.00 0.00 0.00 88 1016.6
20260509075144 15 19 0.0 1.6 0.00 0.00 0.00 87 1016.7
20260509074648 15 33 0.0 1.6 0.00 0.00 0.00 86 1016.6
20260509074143 15 33 0.0 1.6 0.00 0.00 0.00 88 1016.7
20260509073647 15 33 0.0 0.0 0.00 0.00 0.00 86 1016.8
20260509073143 15 22 0.0 1.6 0.00 0.00 0.00 87 1016.7
20260509072647 15 22 0.0 1.6 0.00 0.00 0.00 87 1016.8
20260509072143 15 331 0.0 0.0 0.00 0.00 0.00 88 1016.8
20260509071648 15 331 0.0 0.0 0.00 0.00 0.00 88 1016.7
20260509071118 14 332 0.0 0.0 0.00 0.00 0.00 88 1016.9
20260509070118 14 333 0.0 0.0 0.00 0.00 0.00 89 1016.9
20260509065612 13 333 0.0 0.0 0.00 0.00 0.00 90 1017.0
20260509065100 13 333 0.0 0.0 0.00 0.00 0.00 91 1017.0
20260509064601 13 333 0.0 0.0 0.00 0.00 0.00 91 1017.2
20260509063558 13 333 0.0 0.0 0.00 0.00 0.00 93 1017.2
20260509063100 13 333 0.0 0.0 0.00 0.00 0.00 94 1017.3
20260509062059 12 333 0.0 0.0 0.00 0.00 0.00 95 1017.3
20260509061603 12 333 0.0 0.0 0.00 0.00 0.00 95 1017.2
20260509061101 12 332 0.0 0.0 0.00 0.00 0.00 95 1017.1
20260509060601 12 332 0.0 0.0 0.00 0.00 0.00 95 1017.0
20260509055059 12 332 0.0 0.0 0.00 0.00 0.00 96 1017.2
20260509054059 12 332 0.0 0.0 0.00 0.00 0.00 96 1017.1
20260509053601 12 332 0.0 0.0 0.00 0.00 0.00 96 1016.9
20260509053100 12 332 0.0 0.0 0.00 0.00 0.00 96 1017.0
20260509052601 12 332 0.0 0.0 0.00 0.00 0.00 96 1016.8
20260509051602 11 332 0.0 0.0 0.00 0.00 0.00 96 1016.7
20260509051058 11 332 0.0 1.6 0.00 0.00 0.00 96 1017.0
20260509050601 11 332 0.0 1.6 0.00 0.00 0.00 95 1016.9
20260509050059 11 332 0.0 3.2 0.00 0.00 0.00 95 1016.6
20260509045558 11 332 0.0 3.2 0.00 0.00 0.00 95 1016.4
20260509045048 11 334 0.0 0.0 0.00 0.00 0.00 95 1016.7
20260509044547 11 311 0.0 0.0 0.00 0.00 0.00 95 1016.6
20260509044049 11 299 0.0 0.0 0.00 0.00 0.00 95 1016.6
20260509043550 11 300 0.0 0.0 0.00 0.00 0.00 95 1016.4
20260509043049 11 300 0.0 0.0 0.00 0.00 0.00 95 1016.3
20260509042547 11 300 0.0 0.0 0.00 0.00 0.00 96 1016.3
20260509042050 11 300 0.0 0.0 0.00 0.00 0.00 95 1016.4
20260509041548 11 300 0.0 0.0 0.00 0.00 0.00 95 1016.0
20260509041046 10 300 0.0 0.0 0.00 0.00 0.00 95 1016.1
20260509040548 10 300 0.0 0.0 0.00 0.00 0.00 95 1016.2
20260509035535 10 300 0.0 0.0 0.00 0.00 0.00 95 1016.1
20260509035035 10 300 0.0 0.0 0.00 0.00 0.00 95 1016.2
20260509034534 10 300 0.0 0.0 0.00 0.00 0.00 95 1015.9
20260509034022 10 300 0.0 1.6 0.00 0.00 0.00 95 1015.8
20260509033522 10 300 0.0 1.6 0.00 0.00 0.00 95 1016.0
20260509033002 10 300 0.0 1.6 0.00 0.00 0.00 95 1016.0
20260509032500 10 300 0.0 0.0 0.00 0.00 0.00 95 1015.9
20260509032000 10 300 0.0 0.0 0.00 0.00 0.00 95 1015.9
20260509031450 10 300 0.0 0.0 0.00 0.00 0.00 95 1015.8
20260509030946 10 300 0.0 0.0 0.00 0.00 0.00 95 1015.9
20260509030449 10 300 0.0 0.0 0.00 0.00 0.00 95 1015.8
20260509025949 10 300 0.0 0.0 0.00 0.00 0.00 95 1016.0
20260509025449 10 300 0.0 0.0 0.00 0.00 0.00 95 1015.9
20260509024946 10 300 0.0 0.0 0.00 0.00 0.00 95 1015.9
20260509024449 10 300 0.0 0.0 0.00 0.00 0.00 94 1015.8
20260509023946 10 300 0.0 0.0 0.00 0.00 0.00 95 1015.8
20260509023447 10 300 0.0 0.0 0.00 0.00 0.00 95 1015.8
20260509022947 10 300 0.0 0.0 0.00 0.00 0.00 95 1015.7
20260509021947 10 300 0.0 0.0 0.00 0.00 0.00 94 1015.7
20260509021449 10 300 0.0 0.0 0.00 0.00 0.00 94 1015.7
20260509020445 10 300 0.0 0.0 0.00 0.00 0.00 94 1015.8
20260509015934 10 300 0.0 0.0 0.00 0.00 0.00 94 1015.8
20260509015435 10 300 0.0 0.0 0.00 0.00 0.00 94 1015.7
20260509014937 10 300 0.0 0.0 0.00 0.00 0.00 94 1015.8
20260509014422 10 300 0.0 0.0 0.00 0.00 0.00 94 1015.9
20260509013926 10 300 0.0 0.0 0.00 0.00 0.00 94 1015.8
20260509013359 11 300 0.0 0.0 0.00 0.00 0.00 94 1015.8
20260509012859 11 300 0.0 0.0 0.00 0.00 0.00 94 1015.8
20260509012402 11 300 0.0 0.0 0.00 0.00 0.00 94 1015.9
20260509011847 11 300 0.0 3.2 0.00 0.00 0.00 93 1015.7
20260509011346 11 300 0.0 3.2 0.00 0.00 0.00 94 1015.7
20260509010850 11 299 1.6 1.6 0.00 0.00 0.00 94 1015.7
20260509010348 11 298 0.0 1.6 0.00 0.00 0.00 94 1015.8
20260509005350 11 298 0.0 1.6 0.00 0.00 0.00 93 1015.8
20260509004345 11 297 0.0 1.6 0.00 0.00 0.00 93 1015.6
20260509003851 11 297 0.0 1.6 0.00 0.00 0.00 93 1015.7
20260509003346 11 297 1.6 1.6 0.00 0.00 0.00 94 1015.7
20260509002846 11 296 0.0 0.0 0.00 0.00 0.00 93 1015.4
20260509002348 11 295 0.0 0.0 0.00 0.00 0.00 93 1015.4
20260509001847 11 296 0.0 0.0 0.00 0.00 0.00 93 1015.5
20260509000826 11 299 0.0 0.0 0.00 0.00 0.00 92 1015.4
20260509000325 11 306 0.0 0.0 0.00 0.00 0.00 92 1015.5
20260508235822 12 306 0.0 0.0 0.00 0.00 0.00 92 1015.3
20260508235311 12 306 0.0 0.0 0.00 0.00 0.00 92 1015.3
20260508234811 12 306 0.0 0.0 0.00 0.00 0.00 92 1015.6
20260508234301 12 306 0.0 0.0 0.00 0.00 0.00 92 1015.4
20260508233801 12 306 0.0 0.0 0.00 0.00 0.00 92 1015.4
20260508233258 12 306 0.0 0.0 0.00 0.00 0.00 92 1015.4
20260508232258 12 306 0.0 0.0 0.00 0.00 0.00 92 1015.5
20260508231800 12 306 0.0 0.0 0.00 0.00 0.00 92 1015.6
20260508231307 12 306 0.0 0.0 0.00 0.00 0.00 91 1015.5
20260508230759 12 306 0.0 0.0 0.00 0.00 0.00 91 1015.8
20260508230258 13 306 0.0 4.8 0.00 0.00 0.00 91 1015.4
20260508225258 13 337 1.6 3.2 0.00 0.00 0.00 92 1015.6
20260508223759 13 43 0.0 0.0 0.00 0.00 0.00 91 1015.5
20260508223259 13 42 0.0 1.6 0.00 0.00 0.00 90 1015.5
20260508222801 13 42 0.0 1.6 0.00 0.00 0.00 91 1015.3
20260508222250 13 76 0.0 0.0 0.00 0.00 0.00 90 1015.4
20260508221748 13 76 0.0 0.0 0.00 0.00 0.00 90 1015.5
20260508221254 13 76 0.0 0.0 0.00 0.00 0.00 90 1015.3
20260508220747 13 75 0.0 0.0 0.00 0.00 0.00 89 1015.4
20260508220254 13 76 0.0 1.6 0.00 0.00 0.00 89 1015.4
20260508215747 14 79 0.0 3.2 0.00 0.00 0.00 90 1015.4
20260508214747 13 104 0.0 1.6 0.00 0.00 0.00 90 1015.5
20260508214253 14 117 0.0 1.6 0.00 0.00 0.00 88 1015.4
20260508213745 14 114 0.0 1.6 0.00 0.00 0.00 88 1015.5
20260508213252 14 114 0.0 0.0 0.00 0.00 0.00 87 1015.6
20260508212746 14 114 0.0 1.6 0.00 0.00 0.00 87 1015.1
20260508212250 15 114 0.0 1.6 0.00 0.00 0.00 88 1015.3
20260508211748 15 115 0.0 0.0 0.00 0.00 0.00 87 1015.2
20260508211252 15 115 0.0 0.0 0.00 0.00 0.00 86 1015.2
20260508210748 15 115 0.0 0.0 0.00 0.00 0.00 86 1015.2
20260508205747 15 115 0.0 0.0 0.00 0.00 0.00 85 1015.3